BAW542W EGLL-LIPE

Flight info

Callsign BAW542W
Flight time N/A
Altitude 37000
Route DET1J DET L6 DVR UL9 KONAN DCT KOK DCT SISGA DCT RITAX DCT KRH DCT TEDGO DCT BATUB DCT TIRUL M738 NATAG DCT LORLO DCT RENTA DCT UNTAD DCT NEGIK DCT ADOSA M738 BENUS BENUS4M
Aircraft A320/M-SDE3FGIJ1KRWXY/SB1

Departure

Time 2026-04-30 14:25
Airport London Heathrow Airport (EGLL)

Arrival

Time N/A
Airport Bologna Guglielmo Marconi Airport (LIPE)
Time Latitude Longitude Altitude Speed Heading
2026-04-30 14:13 51.47399 -0.48590 77 ft 0 kts 270°
2026-04-30 14:20 51.47399 -0.48577 90 ft 2 kts 270°
2026-04-30 14:20 51.47399 -0.48525 87 ft 2 kts 270°
2026-04-30 14:21 51.47399 -0.48499 87 ft 2 kts 268°
2026-04-30 14:21 51.47402 -0.48473 87 ft 2 kts 234°
2026-04-30 14:21 51.47331 -0.48476 87 ft 13 kts 180°
2026-04-30 14:22 51.47203 -0.48475 87 ft 22 kts 179°
2026-04-30 14:22 51.46862 -0.48472 88 ft 27 kts 179°
2026-04-30 14:22 51.46672 -0.48470 87 ft 28 kts 181°
2026-04-30 14:23 51.46581 -0.48469 88 ft 7 kts 179°
2026-04-30 14:23 51.46484 -0.48404 89 ft 8 kts 100°
2026-04-30 14:24 51.46480 -0.47589 85 ft 88 kts 90°
2026-04-30 14:24 51.46484 -0.46323 90 ft 136 kts 91°
2026-04-30 14:25 51.46502 -0.43045 1153 ft 148 kts 90°
2026-04-30 14:25 51.46049 -0.39907 2455 ft 152 kts 121°
2026-04-30 14:26 51.44312 -0.37201 3065 ft 200 kts 127°
2026-04-30 14:26 51.43710 -0.35043 3423 ft 227 kts 101°
2026-04-30 14:26 51.43042 -0.29801 4870 ft 247 kts 110°
2026-04-30 14:27 51.42596 -0.27142 5713 ft 252 kts 105°
2026-04-30 14:27 51.42222 -0.24344 6528 ft 258 kts 106°
2026-04-30 14:27 51.41834 -0.21495 7326 ft 264 kts 106°
2026-04-30 14:28 51.41044 -0.15696 9074 ft 268 kts 105°
2026-04-30 14:28 51.40645 -0.12783 9910 ft 270 kts 105°
2026-04-30 14:28 51.40234 -0.09797 10533 ft 281 kts 105°
2026-04-30 14:28 51.39797 -0.06653 10737 ft 303 kts 105°
2026-04-30 14:29 51.38824 0.00318 11611 ft 327 kts 105°
2026-04-30 14:29 51.38125 0.05274 12518 ft 334 kts 104°
2026-04-30 14:30 51.36581 0.16343 14423 ft 346 kts 104°
2026-04-30 14:31 51.35515 0.23924 15605 ft 353 kts 105°
2026-04-30 14:31 51.34421 0.31665 16746 ft 360 kts 105°
2026-04-30 14:31 51.33869 0.35567 17340 ft 363 kts 105°
2026-04-30 14:32 51.32729 0.43528 18535 ft 370 kts 105°
2026-04-30 14:32 51.32155 0.47535 19063 ft 373 kts 105°
2026-04-30 14:32 51.31569 0.51620 19640 ft 376 kts 105°
2026-04-30 14:33 51.30987 0.55664 20239 ft 378 kts 105°
2026-04-30 14:33 51.29737 0.63867 21410 ft 381 kts 107°
2026-04-30 14:33 51.29006 0.67960 21966 ft 383 kts 108°
2026-04-30 14:34 51.28238 0.72017 22488 ft 385 kts 109°
2026-04-30 14:34 51.27456 0.76086 23008 ft 387 kts 109°
2026-04-30 14:34 51.26666 0.80219 23534 ft 389 kts 108°
2026-04-30 14:34 51.25885 0.84362 23988 ft 391 kts 108°
2026-04-30 14:35 51.24330 0.92744 24794 ft 395 kts 108°
2026-04-30 14:35 51.23557 0.96935 25185 ft 398 kts 108°
2026-04-30 14:35 51.22771 1.01196 25555 ft 400 kts 108°
2026-04-30 14:36 51.21989 1.05420 25927 ft 402 kts 108°
2026-04-30 14:36 51.21185 1.09748 26308 ft 404 kts 108°
2026-04-30 14:36 51.20385 1.14032 26677 ft 406 kts 108°
2026-04-30 14:36 51.19570 1.18375 27040 ft 409 kts 108°
2026-04-30 14:37 51.18759 1.22688 27398 ft 411 kts 108°
2026-04-30 14:37 51.17926 1.27105 27756 ft 413 kts 108°
2026-04-30 14:37 51.17102 1.31461 28113 ft 415 kts 108°
2026-04-30 14:37 51.16360 1.35947 28464 ft 419 kts 102°
2026-04-30 14:38 51.16033 1.40539 28802 ft 423 kts 96°
2026-04-30 14:38 51.15819 1.45220 29140 ft 425 kts 96°
2026-04-30 14:38 51.15600 1.49962 29458 ft 427 kts 96°
2026-04-30 14:38 51.15378 1.54661 29838 ft 428 kts 97°
2026-04-30 14:39 51.15151 1.59370 30308 ft 427 kts 97°
2026-04-30 14:39 51.14921 1.64084 30715 ft 426 kts 97°
2026-04-30 14:39 51.14687 1.68811 31128 ft 424 kts 97°
2026-04-30 14:40 51.14215 1.78151 31968 ft 422 kts 97°
2026-04-30 14:40 51.13976 1.82768 32384 ft 420 kts 97°
2026-04-30 14:40 51.13736 1.87380 32813 ft 419 kts 97°
2026-04-30 14:40 51.13495 1.92022 33235 ft 418 kts 97°
2026-04-30 14:41 51.13031 1.96539 33652 ft 414 kts 109°
2026-04-30 14:41 51.11948 2.00795 34057 ft 412 kts 115°
2026-04-30 14:41 51.10793 2.04918 34430 ft 411 kts 115°
2026-04-30 14:41 51.09610 2.09104 34743 ft 411 kts 115°
2026-04-30 14:42 51.08443 2.13213 35022 ft 411 kts 115°
2026-04-30 14:42 51.07264 2.17351 35298 ft 412 kts 115°
2026-04-30 14:42 51.06084 2.21486 35569 ft 413 kts 115°
2026-04-30 14:42 51.04893 2.25651 35827 ft 413 kts 115°
2026-04-30 14:43 51.03696 2.29838 36074 ft 414 kts 115°
2026-04-30 14:43 51.02511 2.33983 36326 ft 414 kts 115°
2026-04-30 14:43 51.01320 2.38154 36574 ft 415 kts 115°
2026-04-30 14:43 51.00120 2.42349 36835 ft 415 kts 115°
2026-04-30 14:44 50.98920 2.46519 37090 ft 415 kts 115°
2026-04-30 14:44 50.97720 2.50678 37219 ft 416 kts 115°
2026-04-30 14:44 50.95304 2.59065 37238 ft 423 kts 115°
2026-04-30 14:45 50.92842 2.67605 37237 ft 424 kts 115°
2026-04-30 14:45 50.90379 2.76083 37237 ft 424 kts 115°
2026-04-30 14:46 50.87900 2.84579 37232 ft 424 kts 115°
2026-04-30 14:46 50.85436 2.93006 37233 ft 424 kts 115°
2026-04-30 14:47 50.82937 3.01517 37233 ft 424 kts 115°
2026-04-30 14:47 50.80466 3.09908 37229 ft 424 kts 116°
2026-04-30 14:48 50.77958 3.18380 37236 ft 424 kts 116°
2026-04-30 14:48 50.75449 3.26838 37239 ft 424 kts 116°
2026-04-30 14:49 50.72948 3.35248 37242 ft 424 kts 116°
2026-04-30 14:49 50.70439 3.43641 37246 ft 424 kts 116°
2026-04-30 14:50 50.66650 3.56259 37251 ft 424 kts 116°
2026-04-30 14:51 50.62863 3.68829 37248 ft 424 kts 116°
2026-04-30 14:52 50.59060 3.81343 37251 ft 423 kts 116°
2026-04-30 14:52 50.55256 3.93866 37257 ft 423 kts 115°
2026-04-30 14:53 50.51429 4.06378 37265 ft 423 kts 115°
2026-04-30 14:54 50.46303 4.23006 37263 ft 423 kts 116°
2026-04-30 14:55 50.42446 4.35427 37264 ft 423 kts 115°
2026-04-30 14:56 50.37276 4.52018 37261 ft 423 kts 115°
2026-04-30 14:57 50.33395 4.64401 37272 ft 423 kts 115°
2026-04-30 14:58 50.28175 4.80943 37278 ft 423 kts 116°
2026-04-30 14:58 50.24248 4.93293 37283 ft 423 kts 116°
2026-04-30 15:00 50.17698 5.13827 37287 ft 423 kts 116°
2026-04-30 15:01 50.12421 5.30225 37284 ft 423 kts 116°
2026-04-30 15:01 50.08446 5.42482 37297 ft 423 kts 115°
2026-04-30 15:02 50.06249 5.49253 37298 ft 423 kts 115°
2026-04-30 15:03 49.99581 5.69679 37304 ft 423 kts 115°
2026-04-30 15:04 49.92876 5.90025 37309 ft 424 kts 115°
2026-04-30 15:06 49.86141 6.10353 37297 ft 425 kts 116°
2026-04-30 15:07 49.80688 6.26625 37297 ft 426 kts 116°
2026-04-30 15:08 49.75228 6.42856 37296 ft 426 kts 116°
2026-04-30 15:09 49.68346 6.63150 37298 ft 426 kts 116°
2026-04-30 15:10 49.62815 6.79372 37310 ft 426 kts 115°
2026-04-30 15:11 49.54492 7.03537 37324 ft 426 kts 115°
2026-04-30 15:13 49.47500 7.23685 37311 ft 427 kts 115°
2026-04-30 15:14 49.37608 7.51892 37301 ft 430 kts 115°
2026-04-30 15:17 49.24732 7.88198 37321 ft 431 kts 115°
2026-04-30 15:18 49.14654 8.05261 37321 ft 440 kts 134°
2026-04-30 15:19 49.07828 8.14650 37312 ft 440 kts 134°